Temperature
17 17 18 18 15 13 15 16 18 20 21 22 23 22 20 19 20 20 19 19 20 20 19 19 18 18 17 17 17 17 17 16 16 16 16 16 16 16 15 15 15 15 15 15 15 15 15 15 15
17 17 17 17 13 13 14 16 18 19 21 22 23 22 20 20 19 19 19 19 19 20 19 18 18 18 17 17 17 17 17 17 17 16 16 16 16 16 15 15 15 15 15 15 15 15 15 15 15
16 17 17 13 13 14 16 18 18 20 22 23 22 22 20 20 20 19 20 19 19 19 19 18 18 17 17 17 17 17 17 17 17 17 17 16 16 16 16 15 15 15 15 15 16 15 15 15 14
16 16 16 12 14 15 16 17 18 20 22 23 22 20 20 20 20 20 20 19 19 19 18 18 17 17 17 17 17 17 17 17 17 17 17 17 16 16 16 16 15 15 15 16 16 15 15 15 15
16 16 13 12 14 15 16 18 19 19 21 22 21 18 19 19 20 20 19 19 19 19 18 17 17 17 17 17 17 17 17 17 17 17 17 17 17 16 16 16 16 16 16 16 16 16 15 15 15
15 13 12 12 14 15 17 19 19 20 20 21 21 18 18 18 19 19 19 18 19 18 17 17 17 17 17 17 17 17 17 17 17 18 17 17 17 17 16 16 16 16 16 16 16 16 15 15 15
13 12 12 13 14 15 17 19 19 19 20 21 21 17 17 18 18 18 18 18 18 18 17 17 16 17 17 17 17 17 17 18 18 18 18 17 17 17 17 16 16 16 16 16 16 16 16 15 15
14 12 12 13 14 16 18 19 20 20 20 21 21 18 17 18 18 17 17 17 17 17 17 17 17 16 17 17 17 17 17 18 18 18 18 18 18 17 17 17 17 16 16 16 16 16 16 15 15
13 11 12 13 14 16 18 19 20 20 21 20 20 20 19 18 18 17 17 17 17 17 17 17 16 16 17 17 17 17 17 17 17 18 18 18 18 17 17 17 17 17 16 16 16 16 16 15 15
12 11 12 14 15 16 17 18 19 19 19 18 19 19 18 18 18 18 17 17 16 16 16 16 16 16 16 16 17 17 17 17 17 17 18 18 17 17 17 17 17 17 17 16 16 16 16 15 15
11 11 13 15 16 17 17 18 19 18 17 18 18 18 18 18 18 18 17 17 17 17 16 16 16 16 16 16 16 17 17 17 17 17 17 17 17 17 17 17 17 17 17 16 16 16 16 15 15
11 12 14 15 16 16 17 17 18 18 18 19 20 19 19 18 18 18 17 17 16 16 16 16 16 16 16 16 16 16 16 17 17 17 17 17 17 17 17 17 17 17 16 16 16 16 16 15 15
11 12 14 15 16 16 17 17 17 17 18 19 19 18 18 18 18 18 18 17 17 16 16 16 15 16 16 16 16 16 16 16 16 16 16 16 16 17 17 17 16 16 16 16 16 16 15 15 15
11 13 14 15 15 16 16 16 16 17 17 18 18 18 18 18 18 17 17 17 17 16 16 16 16 16 15 15 15 15 16 16 16 16 16 16 16 16 16 16 16 16 15 15 15 15 15 15 14
13 12 12 13 14 15 16 15 15 17 17 18 18 18 18 18 18 18 17 17 17 16 16 16 16 15 15 15 15 15 15 15 15 15 15 15 15 15 15 15 15 15 15 14 14 14 14 14 14
11 11 11 12 13 14 14 14 15 16 17 17 17 18 18 18 18 18 18 17 17 17 16 16 16 16 15 15 15 15 15 15 15 15 15 15 15 15 14 15 15 14 14 14 14 13 13 13 13
9 9 10 12 13 13 13 13 14 16 16 16 17 17 18 18 17 17 17 17 17 17 17 16 16 16 16 15 15 15 15 15 15 15 15 15 15 14 14 14 14 14 14 13 13 13 13 12 12
9 9 10 10 12 12 12 12 13 15 16 16 17 17 17 17 17 17 17 17 17 17 17 16 16 16 16 15 15 15 15 15 15 15 15 15 14 14 14 14 14 13 13 13 13 13 12 12 12
9 9 10 10 12 12 12 12 13 14 15 15 16 16 17 17 17 17 17 17 17 17 17 16 16 16 16 15 15 15 15 15 15 15 15 15 14 14 14 14 14 13 13 13 13 12 12 12 12
10 10 10 11 12 12 11 11 12 13 14 15 15 16 16 16 16 16 16 16 16 16 16 16 16 16 16 15 15 15 15 15 15 15 15 14 14 14 14 13 13 13 13 13 13 12 12 12 12
10 9 9 10 11 12 11 11 11 12 13 14 15 16 16 15 15 15 15 15 16 16 16 16 15 15 15 15 15 15 15 15 14 14 14 14 14 14 14 13 13 13 13 13 13 12 12 12 12
9 10 10 10 10 9 10 9 10 10 11 12 13 14 14 14 14 14 14 14 15 15 15 15 15 15 15 15 14 14 14 14 14 14 14 14 14 13 13 13 13 13 12 12 12 12 12 11 11
10 10 10 10 9 9 9 8 9 10 10 11 11 12 13 13 13 13 13 13 13 13 13 13 14 14 14 14 14 14 14 14 13 13 13 13 13 13 13 12 12 12 12 12 12 12 11 11 11
9 9 9 8 8 8 8 8 8 8 10 10 10 11 12 12 12 12 12 12 12 12 12 12 12 12 13 13 13 13 13 13 13 13 12 12 12 12 12 12 12 12 12 12 11 11 11 11 11
9 8 8 8 8 7 8 8 9 9 9 10 10 10 11 11 11 11 11 11 11 11 11 11 11 11 11 12 12 12 12 12 12 12 12 12 12 12 11 11 11 11 11 11 11 11 11 10 10
8 8 7 7 7 7 8 7 8 9 9 11 11 11 11 11 11 11 10 10 10 10 10 10 10 10 10 10 10 10 10 10 10 10 10 11 11 11 11 11 11 10 10 10 10 10 10 10 10
8 8 8 7 7 7 7 8 9 9 8 8 9 10 10 10 10 10 10 10 9 9 9 9 9 9 9 9 9 9 9 9 9 9 9 9 9 9 9 10 10 10 10 10 9 9 9 9 9
8 8 7 6 7 7 8 8 8 8 8 7 8 9 10 10 10 10 9 9 9 9 8 8 8 8 8 8 8 8 8 8 8 8 8 8 8 8 8 9 9 9 9 9 9 9 9 9 8
8 8 7 6 6 7 7 8 9 8 8 8 8 9 10 10 10 9 9 9 8 8 8 8 7 7 7 7 7 7 7 7 7 7 7 7 7 7 7 8 8 8 8 8 8 8 8 7 7
8 8 7 6 6 6 5 7 9 8 8 8 8 9 10 10 10 9 9 8 8 7 7 7 7 7 7 6 6 6 6 6 6 6 6 6 6 7 7 7 7 7 7 7 7 7 6 6 6
Wind_Speed
5 5 3 4 5 4 4 6 4 4 2 2 3 8 9 5 3 5 3 11 16 14 18 21 21 20 20 19 18 18 17 15 14 13 12 12 12 12 13 14 15 15 15 15 14 14 14 14 14
2 2 5 5 5 2 6 6 5 6 6 4 4 7 7 4 3 7 6 12 18 17 18 19 21 21 20 20 19 18 16 15 14 13 12 12 13 13 14 15 15 15 15 14 14 14 13 13 13
1 2 4 4 4 6 6 4 5 5 5 3 4 6 6 5 4 6 10 16 15 14 16 19 22 21 21 20 19 18 16 15 14 12 12 13 13 14 15 15 15 15 14 14 13 13 12 11 11
1 4 5 3 6 8 7 5 4 5 4 1 5 6 4 2 4 8 16 16 16 11 15 20 21 21 21 20 19 18 16 15 14 13 12 13 13 14 15 15 15 15 14 13 13 12 11 10 10
2 4 3 3 7 7 7 7 5 5 3 1 6 6 4 7 7 17 17 17 16 11 15 19 21 21 21 20 19 18 16 15 14 13 13 14 14 14 14 14 14 14 13 13 12 11 9 8 8
4 4 4 7 9 8 7 5 4 3 2 1 6 6 2 3 8 13 16 15 15 13 15 18 21 21 20 20 19 18 16 15 14 14 14 14 14 14 13 13 13 13 12 12 11 10 8 7 6
5 6 7 7 8 9 9 4 3 3 2 1 5 7 3 2 4 10 14 14 13 14 13 15 18 19 20 19 19 18 17 16 15 14 14 14 13 13 13 13 12 12 11 11 10 9 7 6 4
5 6 7 7 8 9 6 4 4 4 3 1 5 9 7 4 6 11 13 12 12 11 10 11 14 16 16 17 19 18 17 17 16 15 14 14 13 13 13 12 12 11 11 10 9 8 7 5 4
4 5 10 11 10 8 4 4 6 2 1 3 3 4 7 10 12 14 12 10 10 11 9 9 11 13 15 15 16 18 17 16 16 15 15 14 13 12 12 11 11 11 10 10 9 8 7 6 5
4 8 11 8 8 5 3 5 6 2 2 3 5 5 7 10 14 14 13 12 11 12 10 9 9 11 13 13 14 14 14 15 14 14 15 14 12 12 11 11 12 11 11 10 9 9 8 7 6
6 7 6 5 5 2 2 5 4 1 1 4 9 9 8 10 12 12 11 11 11 11 11 10 8 11 11 9 11 11 11 13 13 15 15 14 12 10 10 10 11 11 11 10 9 9 8 8 7
6 4 5 4 2 2 3 3 2 2 4 5 10 11 8 10 11 12 11 10 10 10 10 10 9 9 11 11 11 11 10 10 11 14 16 13 9 8 9 10 11 12 11 10 9 9 9 9 10
4 4 4 3 3 3 3 2 2 2 3 3 8 8 9 9 8 7 8 9 9 9 10 10 10 10 10 9 9 10 10 11 13 14 15 15 10 8 9 10 12 12 12 11 9 9 9 9 10
5 3 3 3 4 3 4 2 3 4 2 5 8 8 8 8 8 6 7 7 8 8 9 9 10 10 10 7 6 8 11 13 13 14 16 18 14 11 10 9 10 12 13 13 12 11 9 8 8
4 4 3 4 5 4 4 4 7 6 2 4 5 6 7 7 8 8 9 8 8 8 8 8 9 9 9 8 8 8 11 12 11 13 17 18 16 15 12 8 8 12 15 14 12 11 9 6 6
5 5 5 5 6 5 8 10 7 5 4 4 4 3 4 4 6 6 7 6 7 7 6 7 7 8 8 7 7 7 9 10 10 13 14 17 18 17 13 8 8 13 14 12 7 6 6 7 6
5 7 7 5 6 5 7 7 6 3 5 6 5 4 4 3 2 3 4 5 6 6 6 5 4 5 6 7 6 7 7 7 8 10 11 14 16 17 14 9 10 13 10 8 7 7 6 6 7
10 8 7 8 6 7 7 6 6 4 5 7 6 5 4 4 2 1 2 3 5 4 4 4 3 3 3 4 3 3 4 4 6 7 8 10 12 14 13 9 10 10 6 7 7 7 7 6 6
7 8 7 6 5 7 8 8 9 6 4 6 6 5 5 4 1 3 4 5 6 6 5 4 3 1 1 2 2 3 4 4 4 5 7 8 9 10 10 7 7 7 8 9 9 7 7 7 4
6 7 6 3 4 6 7 10 9 8 6 7 8 8 7 5 4 4 5 6 6 6 5 5 4 3 2 1 2 2 3 3 4 3 4 7 8 8 8 7 7 7 8 9 9 8 6 5 5
4 7 8 5 2 2 4 7 10 9 6 6 7 7 7 9 8 5 5 6 6 7 6 4 4 3 2 1 1 1 1 1 1 2 3 4 6 7 7 7 6 6 7 8 9 9 9 7 6
4 4 7 7 7 3 5 5 8 9 9 9 9 7 7 8 8 7 6 6 6 5 5 6 6 5 5 3 2 2 1 2 2 2 3 4 4 5 6 6 5 5 5 7 8 8 8 8 7
4 2 5 6 6 2 3 3 8 5 10 12 10 8 8 8 9 8 7 6 6 5 5 6 7 7 6 6 4 3 2 1 1 2 2 3 3 4 5 5 4 5 5 6 7 7 7 7 8
3 5 7 5 4 4 7 6 8 6 11 9 9 9 9 9 8 8 6 6 6 5 6 6 7 7 7 7 7 5 4 3 3 3 3 3 3 3 5 4 3 3 4 4 5 5 6 6 7
4 6 4 2 3 6 5 6 10 8 9 11 13 11 10 10 9 8 7 6 5 6 6 6 7 6 6 7 7 6 5 4 3 3 2 3 3 3 5 4 3 3 3 3 3 3 3 4 5
5 6 7 6 6 4 4 8 8 7 6 7 11 12 11 9 8 8 7 6 5 5 5 5 6 5 6 6 6 6 5 4 3 4 3 3 2 3 4 4 4 4 4 4 3 2 2 2 2
5 4 4 4 2 2 6 6 7 3 4 8 11 11 10 9 8 8 7 6 6 5 5 5 5 5 5 6 5 6 6 5 5 5 4 4 4 4 5 5 5 5 6 5 4 3 3 2 3
2 5 5 4 5 4 5 5 5 6 7 9 11 11 9 8 8 7 7 6 5 5 4 5 5 5 5 5 5 5 6 6 6 6 6 6 6 6 6 7 7 7 7 7 6 5 5 5 5
4 4 4 4 4 5 4 7 6 10 11 12 11 10 10 9 9 8 6 6 6 5 5 5 5 5 5 5 5 6 6 6 7 7 7 6 7 7 8 7 7 8 8 8 7 8 7 8 7
4 5 6 5 5 4 3 7 6 7 9 10 10 9 8 9 8 8 7 6 6 6 5 5 5 5 5 5 6 6 6 6 7 7 7 7 7 8 8 8 8 9 9 9 9 9 9 9 9
Wind_Direction
329 352 69 55 58 55 244 245 236 279 244 223 146 112 107 100 139 156 117 139 136 142 151 151 149 146 144 140 136 132 129 125 121 119 117 120 122 122 121 116 109 106 104 101 98 97 97 97 99
336 29 63 63 101 179 256 248 245 246 226 199 128 103 90 83 101 110 118 142 139 144 149 151 148 146 143 140 137 134 131 127 125 123 120 123 126 126 124 119 114 111 109 106 104 101 101 102 103
295 65 87 88 150 195 231 250 243 267 258 187 87 76 102 134 146 130 146 141 135 139 146 150 148 146 144 141 138 136 133 131 130 128 124 125 129 128 126 123 119 117 115 114 111 109 108 106 105
105 70 68 112 217 227 227 265 318 308 303 60 93 64 51 3 168 135 139 138 134 133 143 149 147 146 144 142 140 139 137 135 134 132 132 133 132 129 128 126 127 126 125 124 121 119 116 113 108
76 99 115 214 234 250 253 273 284 279 270 49 96 92 31 349 99 129 138 139 138 135 143 150 147 147 146 145 144 143 141 139 138 136 136 136 135 133 132 133 134 135 135 133 131 129 126 122 113
99 100 154 216 238 261 271 270 294 270 274 37 104 102 64 22 106 136 140 140 140 142 147 151 149 149 149 149 149 148 146 145 144 143 141 140 141 141 141 141 142 143 144 143 141 140 139 136 125
144 146 185 204 231 256 259 266 251 243 263 198 125 108 114 82 112 135 137 137 138 143 145 149 152 152 153 153 153 152 151 150 148 147 145 144 145 149 150 150 151 152 152 152 152 153 155 156 150
156 147 180 198 215 241 258 283 264 227 237 86 109 133 160 170 114 120 127 133 137 142 147 148 152 154 155 156 157 156 155 154 153 151 149 150 152 155 158 159 161 162 163 164 166 168 174 180 187
129 148 196 197 203 229 263 294 294 280 125 57 65 142 153 130 114 118 124 130 140 150 153 152 153 156 157 159 162 160 160 160 157 156 157 157 159 162 165 169 171 172 175 178 182 186 192 201 218
145 186 204 200 197 215 267 278 284 324 46 66 63 71 107 117 122 132 143 150 155 161 166 164 161 162 161 164 163 163 163 165 163 165 166 168 172 175 177 181 183 183 186 191 197 200 204 213 232
172 194 200 213 207 203 236 273 292 217 209 182 155 151 137 127 132 141 150 156 163 166 170 174 170 169 167 163 163 168 168 170 173 176 179 180 182 188 192 191 195 195 196 200 208 211 213 221 235
178 207 182 213 202 179 202 252 295 247 218 213 168 155 147 148 152 157 161 165 166 167 171 174 173 170 173 169 172 175 175 179 184 190 192 187 187 195 198 198 200 199 200 203 209 214 222 231 240
199 188 200 212 202 194 176 209 193 231 232 126 127 136 152 159 162 167 167 171 171 175 176 176 174 172 175 172 176 181 187 191 195 197 201 197 192 195 198 203 204 206 206 208 213 221 227 234 242
191 191 199 202 200 189 173 194 165 220 225 111 125 148 170 175 173 174 179 185 188 188 185 180 176 175 174 175 180 184 191 197 199 202 205 204 201 197 197 202 206 210 212 214 216 221 226 232 234
154 162 208 212 182 179 152 209 201 202 177 130 138 152 169 187 183 187 191 190 194 197 195 188 183 177 177 182 188 190 194 197 200 207 210 208 206 201 199 202 206 212 215 216 219 226 228 234 233
144 151 184 221 175 165 160 217 225 210 178 182 180 181 182 189 193 197 192 184 184 186 191 197 193 185 188 190 193 194 197 200 206 210 212 213 211 206 202 204 209 211 212 213 213 217 222 231 231
153 175 184 208 191 157 167 218 249 230 196 210 210 208 211 220 216 207 182 171 168 172 176 180 185 188 197 199 200 203 202 207 211 214 216 218 217 214 210 213 214 210 209 210 214 214 211 224 230
176 169 173 190 199 161 181 225 258 261 206 215 214 207 203 200 222 176 118 126 121 126 146 168 176 190 195 195 200 213 217 219 218 215 219 221 222 221 219 223 220 211 211 216 215 217 215 219 222
147 146 169 202 201 171 200 227 247 262 236 223 218 208 199 194 130 80 73 81 85 69 76 81 99 105 156 166 194 208 226 231 229 227 226 226 228 227 223 226 223 217 221 223 219 218 223 227 206
145 155 176 204 205 182 214 240 251 250 233 220 210 206 191 162 125 82 67 64 71 72 67 67 65 57 69 178 199 206 221 233 238 249 247 240 239 237 232 228 230 225 227 229 224 217 221 224 196
181 178 178 170 139 128 162 260 252 254 235 226 215 197 179 168 153 123 89 73 67 57 50 56 51 51 42 34 88 52 53 0 313 273 266 260 253 249 243 238 234 232 227 233 232 225 223 232 221
204 211 178 155 141 203 173 235 264 234 232 224 213 189 170 154 142 129 111 88 72 58 47 47 47 47 38 43 72 112 161 223 255 272 276 294 289 275 265 257 248 243 236 235 236 230 227 228 233
191 188 147 148 139 140 180 203 275 235 225 224 208 187 169 154 142 132 121 106 84 64 53 46 50 44 35 42 55 75 73 274 312 336 336 325 322 317 302 284 270 258 251 246 243 236 229 226 232
143 91 72 68 92 217 207 191 267 231 218 210 193 180 163 149 137 128 116 103 83 62 54 51 55 45 36 41 44 52 50 30 18 359 348 339 337 344 347 334 314 287 274 268 261 255 246 240 239
137 123 112 137 200 239 200 200 247 250 232 202 181 170 160 150 140 133 124 108 90 70 57 53 57 45 34 41 42 39 41 44 36 5 359 357 358 353 347 353 345 326 312 302 291 277 268 260 254
181 151 159 177 198 250 201 224 252 279 259 178 156 153 151 148 145 142 138 126 108 89 72 63 62 49 36 39 38 34 33 38 30 21 22 18 8 353 346 356 3 1 1 356 348 339 315 311 286
153 167 154 135 163 219 246 266 300 0 94 131 142 147 153 154 151 145 137 129 123 106 89 82 76 60 43 40 43 38 32 35 32 29 31 24 11 12 13 15 17 15 17 17 21 30 12 13 18
167 146 120 140 167 229 261 249 237 218 185 163 159 159 159 154 150 147 143 140 131 119 103 87 82 74 55 44 43 51 35 37 39 42 38 34 27 26 27 31 32 31 30 29 38 40 33 46 38
167 161 151 152 179 187 242 262 226 209 195 180 175 169 165 164 162 159 154 146 134 122 110 97 86 77 63 56 54 52 44 44 47 47 40 38 38 35 37 38 41 41 38 36 47 49 47 55 52
193 188 161 170 215 196 206 268 285 231 193 174 173 175 173 169 165 160 155 146 139 133 122 109 98 87 77 73 67 60 52 50 51 48 42 43 45 42 43 45 49 48 46 45 52 55 55 59 57
Height
1531 1533 1534 1536 1539 1548 1547 1537 1528 1524 1521 1519 1518 1517 1520 1524 1527 1532 1529 1529 1532 1535 1538 1541 1544 1547 1549 1551 1552 1554 1555 1555 1556 1556 1556 1556 1557 1557 1557 1558 1558 1559 1558 1558 1557 1557 1557 1557 1557
1530 1532 1535 1536 1544 1553 1546 1532 1526 1521 1519 1518 1518 1518 1520 1523 1524 1525 1527 1530 1533 1536 1538 1541 1544 1547 1549 1551 1553 1554 1555 1556 1556 1557 1557 1557 1558 1558 1559 1559 1560 1560 1560 1559 1559 1559 1558 1559 1559
1528 1531 1534 1537 1545 1547 1538 1525 1523 1519 1517 1516 1517 1519 1521 1524 1525 1526 1527 1531 1534 1536 1539 1542 1545 1547 1549 1551 1553 1554 1555 1556 1557 1557 1558 1558 1559 1559 1560 1561 1561 1561 1561 1561 1561 1561 1560 1561 1561
1527 1531 1533 1540 1541 1534 1528 1522 1521 1519 1516 1515 1516 1520 1523 1525 1526 1526 1528 1531 1534 1537 1539 1542 1545 1548 1550 1552 1553 1554 1556 1556 1557 1558 1558 1559 1560 1560 1561 1562 1562 1562 1562 1562 1562 1562 1563 1563 1563
1525 1528 1535 1540 1537 1528 1523 1521 1521 1519 1517 1515 1516 1521 1523 1525 1525 1527 1528 1531 1534 1537 1540 1543 1546 1548 1550 1552 1553 1555 1556 1557 1558 1558 1559 1560 1560 1561 1562 1562 1563 1563 1564 1564 1564 1564 1564 1565 1565
1523 1526 1537 1540 1533 1525 1521 1520 1521 1519 1517 1516 1517 1521 1525 1526 1526 1527 1529 1532 1535 1537 1540 1543 1546 1548 1550 1552 1553 1555 1556 1557 1558 1559 1560 1560 1561 1562 1563 1563 1564 1564 1565 1565 1565 1566 1566 1566 1566
1520 1525 1531 1532 1530 1525 1520 1519 1520 1519 1517 1517 1517 1521 1525 1527 1528 1529 1531 1534 1536 1538 1541 1544 1546 1548 1551 1552 1554 1555 1556 1557 1558 1559 1560 1561 1562 1562 1563 1564 1564 1565 1565 1566 1566 1567 1567 1567 1567
1517 1522 1528 1529 1528 1523 1518 1519 1518 1518 1517 1517 1517 1519 1523 1527 1528 1530 1532 1535 1537 1539 1541 1543 1546 1548 1550 1552 1553 1555 1556 1557 1558 1559 1560 1561 1562 1563 1563 1564 1565 1565 1566 1566 1567 1567 1568 1568 1568
1515 1523 1524 1523 1523 1519 1517 1518 1517 1517 1516 1516 1517 1518 1521 1525 1528 1530 1533 1535 1537 1539 1541 1543 1545 1548 1550 1552 1553 1554 1556 1557 1558 1559 1560 1561 1562 1563 1564 1564 1565 1565 1566 1566 1567 1567 1567 1568 1568
1513 1519 1516 1514 1515 1516 1517 1518 1517 1517 1516 1516 1517 1519 1522 1525 1527 1530 1532 1534 1536 1538 1541 1543 1545 1547 1549 1551 1552 1554 1555 1557 1558 1559 1560 1560 1561 1562 1563 1564 1564 1565 1565 1566 1566 1566 1567 1567 1567
1510 1512 1511 1512 1513 1515 1517 1518 1517 1517 1517 1516 1516 1519 1522 1525 1528 1530 1532 1534 1536 1538 1540 1542 1544 1546 1548 1550 1551 1553 1554 1556 1557 1558 1559 1559 1560 1561 1562 1563 1564 1564 1565 1565 1565 1565 1566 1566 1566
1509 1509 1510 1511 1513 1515 1517 1517 1518 1517 1516 1515 1516 1518 1521 1524 1527 1529 1531 1534 1536 1537 1539 1541 1543 1545 1547 1549 1550 1552 1553 1554 1555 1557 1557 1558 1559 1560 1561 1561 1562 1563 1563 1564 1564 1564 1564 1565 1565
1507 1508 1509 1511 1512 1514 1516 1517 1517 1517 1516 1515 1516 1518 1521 1523 1526 1529 1531 1533 1535 1537 1538 1540 1542 1544 1546 1547 1549 1550 1552 1553 1554 1555 1556 1557 1557 1558 1559 1559 1560 1561 1561 1562 1562 1562 1562 1562 1563
1506 1507 1509 1510 1512 1513 1515 1516 1516 1517 1517 1516 1517 1519 1521 1523 1526 1528 1530 1532 1534 1536 1537 1539 1541 1542 1544 1546 1547 1549 1550 1551 1552 1553 1554 1555 1555 1556 1556 1557 1557 1558 1559 1559 1560 1560 1560 1560 1560
1506 1509 1510 1510 1510 1511 1514 1516 1515 1516 1516 1516 1517 1519 1521 1523 1525 1526 1528 1530 1532 1534 1536 1538 1539 1541 1542 1544 1545 1547 1548 1549 1550 1551 1552 1553 1553 1554 1554 1554 1555 1556 1556 1557 1557 1557 1557 1557 1557
1506 1511 1515 1510 1508 1509 1515 1518 1512 1514 1515 1515 1516 1518 1520 1522 1524 1525 1527 1529 1530 1532 1534 1536 1538 1539 1540 1542 1543 1545 1546 1547 1548 1549 1549 1550 1551 1551 1551 1551 1552 1553 1553 1553 1553 1553 1553 1553 1553
1508 1514 1514 1510 1507 1507 1512 1515 1510 1511 1512 1513 1514 1516 1518 1520 1522 1524 1525 1527 1528 1530 1532 1534 1535 1536 1538 1539 1541 1542 1543 1544 1545 1546 1546 1547 1548 1548 1548 1549 1549 1550 1550 1550 1550 1549 1549 1549 1549
1507 1510 1511 1510 1506 1507 1511 1512 1508 1508 1509 1510 1512 1514 1516 1518 1520 1521 1523 1524 1526 1527 1529 1531 1532 1534 1535 1536 1538 1539 1540 1541 1541 1542 1543 1544 1544 1545 1545 1545 1545 1546 1546 1545 1545 1545 1545 1545 1545
1502 1506 1509 1508 1505 1507 1510 1511 1508 1507 1508 1508 1510 1511 1513 1515 1517 1518 1520 1522 1523 1524 1526 1527 1529 1530 1531 1532 1533 1534 1535 1536 1538 1538 1539 1540 1540 1540 1540 1540 1541 1541 1541 1541 1541 1541 1541 1541 1541
1500 1505 1508 1507 1504 1508 1511 1511 1507 1506 1506 1506 1507 1508 1510 1512 1514 1516 1517 1519 1520 1522 1523 1524 1525 1526 1527 1528 1529 1530 1531 1532 1533 1534 1535 1535 1535 1535 1535 1535 1535 1536 1536 1536 1536 1536 1535 1535 1536
1501 1505 1508 1508 1507 1508 1512 1513 1508 1503 1503 1503 1504 1505 1507 1509 1510 1513 1514 1516 1517 1518 1520 1521 1522 1522 1523 1524 1525 1526 1527 1527 1528 1529 1529 1530 1530 1530 1530 1530 1530 1530 1530 1529 1530 1530 1530 1529 1529
1502 1501 1503 1506 1512 1517 1515 1522 1509 1502 1501 1500 1500 1502 1503 1506 1508 1510 1512 1513 1514 1515 1516 1517 1518 1519 1519 1520 1521 1521 1522 1522 1523 1524 1524 1525 1525 1525 1525 1524 1524 1524 1524 1524 1524 1524 1523 1523 1522
1499 1499 1502 1506 1512 1517 1516 1521 1510 1500 1499 1496 1496 1498 1500 1503 1505 1507 1509 1511 1512 1513 1513 1514 1515 1515 1516 1516 1516 1517 1517 1518 1518 1518 1518 1519 1519 1519 1518 1518 1518 1518 1518 1518 1517 1517 1517 1517 1516
1498 1501 1505 1510 1514 1520 1515 1519 1511 1500 1492 1490 1492 1495 1498 1501 1503 1506 1507 1509 1510 1510 1511 1511 1512 1512 1512 1512 1513 1513 1513 1513 1513 1513 1513 1513 1513 1513 1513 1512 1512 1512 1512 1511 1511 1511 1511 1510 1510
1499 1506 1514 1517 1519 1519 1511 1512 1502 1488 1485 1484 1487 1491 1495 1498 1501 1503 1505 1507 1508 1508 1508 1509 1509 1509 1509 1509 1509 1509 1509 1509 1509 1509 1508 1508 1508 1507 1507 1507 1506 1506 1505 1505 1505 1504 1504 1504 1503
1500 1503 1512 1517 1518 1518 1509 1508 1494 1485 1480 1480 1483 1488 1493 1496 1499 1502 1504 1505 1506 1506 1507 1507 1507 1507 1506 1506 1506 1506 1505 1505 1505 1504 1504 1503 1503 1502 1502 1501 1501 1500 1500 1499 1499 1498 1498 1497 1497
1498 1501 1503 1511 1512 1514 1509 1499 1489 1483 1481 1481 1484 1487 1491 1494 1498 1500 1502 1503 1504 1505 1505 1505 1505 1504 1504 1503 1503 1502 1502 1501 1501 1500 1500 1499 1498 1498 1497 1496 1496 1495 1494 1494 1493 1492 1492 1491 1490
1496 1498 1506 1511 1513 1511 1503 1498 1493 1485 1484 1484 1484 1486 1490 1493 1496 1499 1501 1502 1503 1503 1503 1503 1502 1502 1501 1500 1500 1499 1498 1498 1497 1497 1496 1495 1494 1493 1493 1492 1491 1490 1490 1489 1488 1488 1487 1486 1485
1497 1499 1501 1507 1509 1510 1506 1497 1481 1480 1480 1481 1483 1485 1489 1492 1495 1497 1499 1500 1500 1501 1501 1500 1500 1499 1498 1498 1497 1496 1495 1495 1494 1493 1492 1492 1491 1490 1489 1488 1487 1486 1486 1485 1484 1483 1482 1481 1481
1494 1494 1499 1505 1507 1509 1511 1498 1475 1475 1476 1479 1482 1485 1488 1491 1493 1495 1497 1498 1498 1498 1498 1498 1497 1496 1496 1495 1494 1494 1493 1492 1491 1490 1489 1489 1488 1487 1486 1485 1484 1484 1483 1482 1481 1480 1479 1478 1477